AE5HO Weather Reports


Display with metric or nautical units.
time (UTC)temp
F
wind
direction
speed
MPH
gust
MPH
rain 1hr
in
rain 24hr
in
rain mn
in
humidity
%
barometer
mb
20260831203343 99 172 0.0 2.0 0.00 0.00 0.00 37 1015.5
20260831202841 98 180 0.0 3.0 0.00 0.00 0.00 37 1015.4
20260831202336 98 187 1.0 3.0 0.00 0.00 0.00 38 1015.6
20260831201836 99 78 0.0 2.0 0.00 0.00 0.00 38 1015.5
20260831201334 100 170 0.0 2.0 0.00 0.00 0.00 37 1015.3
20260831200831 100 176 2.0 3.0 0.00 0.00 0.00 36 1015.3
20260831200325 99 79 0.0 3.0 0.00 0.00 0.00 38 1015.6
20260831195821 97 74 0.0 2.0 0.00 0.00 0.00 39 1015.6
20260831195316 98 261 1.0 2.0 0.00 0.00 0.00 39 1016.0
20260831194812 97 261 2.0 7.0 0.00 0.00 0.00 39 1016.0
20260831194307 98 235 3.0 3.0 0.00 0.00 0.00 39 1015.9
20260831193806 97 96 2.0 2.0 0.00 0.00 0.00 39 1015.8
20260831193301 98 201 0.0 5.0 0.00 0.00 0.00 40 1016.2
20260831192756 98 279 0.0 3.0 0.00 0.00 0.00 40 1016.2
20260831192252 99 180 0.0 3.0 0.00 0.00 0.00 39 1016.1
20260831191747 100 270 0.0 2.0 0.00 0.00 0.00 38 1016.3
20260831191243 99 194 0.0 2.0 0.00 0.00 0.00 38 1016.4
20260831190739 99 270 0.0 2.0 0.00 0.00 0.00 37 1016.4
20260831190239 98 35 2.0 2.0 0.00 0.00 0.00 39 1016.3
20260831185733 99 270 0.0 2.0 0.00 0.00 0.00 38 1016.3
20260831185229 98 294 0.0 4.0 0.00 0.00 0.00 39 1016.5
20260831184728 97 278 0.0 3.0 0.00 0.00 0.00 39 1016.5
20260831184224 97 253 0.0 3.0 0.00 0.00 0.00 40 1016.6
20260831183724 98 180 0.0 3.0 0.00 0.00 0.00 41 1016.5
20260831183224 98 151 1.0 5.0 0.00 0.00 0.00 41 1016.6
20260831182723 97 297 0.0 4.0 0.00 0.00 0.00 41 1016.9
20260831182219 97 305 2.0 3.0 0.00 0.00 0.00 42 1016.9
20260831181718 97 169 2.0 4.0 0.00 0.00 0.00 43 1016.9
20260831181214 96 180 0.0 3.0 0.00 0.00 0.00 45 1017.1
20260831180708 96 319 0.0 7.0 0.00 0.00 0.00 43 1017.1
20260831180203 96 23 1.0 3.0 0.00 0.00 0.00 43 1017.1
20260831175703 97 255 0.0 5.0 0.00 0.00 0.00 43 1017.4
20260831175200 98 270 0.0 4.0 0.00 0.00 0.00 43 1017.3
20260831174700 97 185 0.0 2.0 0.00 0.00 0.00 44 1017.5
20260831174155 97 261 1.0 3.0 0.00 0.00 0.00 44 1017.5
20260831173653 97 180 1.0 3.0 0.00 0.00 0.00 46 1017.7
20260831173149 97 203 0.0 4.0 0.00 0.00 0.00 44 1017.8
20260831172649 95 279 2.0 3.0 0.00 0.00 0.00 46 1017.7
20260831172144 97 277 0.0 3.0 0.00 0.00 0.00 44 1018.0
20260831171639 96 79 0.0 4.0 0.00 0.00 0.00 45 1018.1
20260831171137 96 227 3.0 3.0 0.00 0.00 0.00 46 1018.0
20260831170632 96 204 3.0 3.0 0.00 0.00 0.00 45 1017.9
20260831170129 96 254 0.0 3.0 0.00 0.00 0.00 46 1018.0
20260831165625 97 264 2.0 2.0 0.00 0.00 0.00 44 1018.0
20260831165121 96 251 0.0 2.0 0.00 0.00 0.00 45 1018.0
20260831164617 96 284 4.0 4.0 0.00 0.00 0.00 45 1017.9
20260831164113 96 180 0.0 2.0 0.00 0.00 0.00 44 1017.8
20260831163607 94 192 1.0 3.0 0.00 0.00 0.00 46 1017.9
20260831163103 94 260 2.0 3.0 0.00 0.00 0.00 46 1018.1
20260831162602 93 262 0.0 3.0 0.00 0.00 0.00 47 1018.1
20260831162100 94 191 0.0 2.0 0.00 0.00 0.00 46 1018.3
20260831161556 93 183 3.0 3.0 0.00 0.00 0.00 47 1018.1
20260831161052 94 260 0.0 3.0 0.00 0.00 0.00 47 1017.9
20260831160551 94 274 2.0 3.0 0.00 0.00 0.00 47 1017.9
20260831160048 92 251 3.0 3.0 0.00 0.00 0.00 49 1018.1
20260831155547 93 203 1.0 5.0 0.00 0.00 0.00 50 1018.1
20260831155043 93 90 0.0 1.0 0.00 0.00 0.00 49 1018.1
20260831154539 93 262 0.0 2.0 0.00 0.00 0.00 50 1018.1
20260831154039 90 276 0.0 3.0 0.00 0.00 0.00 52 1018.1
20260831153538 91 286 0.0 3.0 0.00 0.00 0.00 52 1018.1
20260831153035 91 266 3.0 3.0 0.00 0.00 0.00 53 1017.9
20260831152530 91 180 0.0 1.0 0.00 0.00 0.00 54 1017.9
20260831152026 90 270 0.0 3.0 0.00 0.00 0.00 55 1017.8
20260831151525 89 243 0.0 4.0 0.00 0.00 0.00 56 1018.1
20260831151025 89 180 1.0 3.0 0.00 0.00 0.00 56 1017.8
20260831150520 89 270 0.0 3.0 0.00 0.00 0.00 57 1017.7
20260831150017 88 225 3.0 3.0 0.00 0.00 0.00 57 1017.7
20260831145511 88 245 2.0 3.0 0.00 0.00 0.00 58 1017.9
20260831145007 87 195 1.0 3.0 0.00 0.00 0.00 58 1017.7
20260831144502 87 241 2.0 3.0 0.00 0.00 0.00 61 1017.6
20260831143957 87 257 1.0 5.0 0.00 0.00 0.00 61 1017.8
20260831143452 86 265 2.0 3.0 0.00 0.00 0.00 62 1017.7
20260831142948 86 240 1.0 2.0 0.00 0.00 0.00 63 1017.9
20260831142444 86 249 1.0 3.0 0.00 0.00 0.00 64 1017.9
20260831141938 85 216 0.0 2.0 0.00 0.00 0.00 65 1017.7
20260831141438 85 195 0.0 3.0 0.00 0.00 0.00 65 1017.9
20260831140933 85 237 0.0 2.0 0.00 0.00 0.00 67 1018.0
20260831140433 84 255 0.0 3.0 0.00 0.00 0.00 67 1018.0
20260831135932 84 66 0.0 2.0 0.00 0.00 0.00 68 1017.9
20260831135431 84 180 0.0 1.0 0.00 0.00 0.00 69 1017.8
20260831134926 84 0 0.0 5.0 0.00 0.00 0.00 69 1017.9
20260831134423 83 180 1.0 2.0 0.00 0.00 0.00 70 1017.7
20260831133922 83 0 0.0 1.0 0.00 0.00 0.00 70 1017.7
20260831133417 83 198 0.0 2.0 0.00 0.00 0.00 70 1017.6
20260831132912 83 188 0.0 1.0 0.00 0.00 0.00 71 1017.4
20260831132408 82 180 0.0 3.0 0.00 0.00 0.00 70 1017.4
20260831131907 82 172 0.0 1.0 0.00 0.00 0.00 71 1017.4
20260831131408 82 180 0.0 2.0 0.00 0.00 0.00 72 1017.1
20260831130903 81 243 0.0 2.0 0.00 0.00 0.00 73 1017.2
20260831130359 81 194 0.0 0.0 0.00 0.00 0.00 74 1017.0
20260831125857 81 172 0.0 1.0 0.00 0.00 0.00 74 1016.8
20260831125354 81 172 0.0 1.0 0.00 0.00 0.00 74 1016.9
20260831124854 80 187 0.0 0.0 0.00 0.00 0.00 74 1016.7
20260831124345 80 203 0.0 2.0 0.00 0.00 0.00 75 1016.6
20260831123844 80 215 0.0 1.0 0.00 0.00 0.00 75 1016.7
20260831123343 79 203 1.0 1.0 0.00 0.00 0.00 75 1016.5
20260831122838 79 254 0.0 2.0 0.00 0.00 0.00 76 1016.5
20260831122334 79 180 0.0 0.0 0.00 0.00 0.00 76 1016.4
20260831121834 79 180 0.0 0.0 0.00 0.00 0.00 76 1016.5
20260831121330 79 180 0.0 0.0 0.00 0.00 0.00 75 1016.5
20260831120826 79 186 0.0 1.0 0.00 0.00 0.00 75 1016.5
20260831120320 79 180 0.0 0.0 0.00 0.00 0.00 75 1016.0
20260831115815 79 180 0.0 2.0 0.00 0.00 0.00 75 1016.3
20260831115312 80 172 0.0 0.0 0.00 0.00 0.00 75 1016.0
20260831114810 80 172 0.0 1.0 0.00 0.00 0.00 75 1016.2
20260831114309 80 195 0.0 1.0 0.00 0.00 0.00 74 1016.0
20260831113806 80 195 0.0 2.0 0.00 0.00 0.00 74 1015.9
20260831113300 80 188 0.0 0.0 0.00 0.00 0.00 74 1015.9
20260831112759 80 195 0.0 0.0 0.00 0.00 0.00 73 1016.0
20260831112255 80 191 0.0 2.0 0.00 0.00 0.00 73 1015.9
20260831111750 81 180 0.0 0.0 0.00 0.00 0.00 72 1015.7
20260831111246 81 187 0.0 1.0 0.00 0.00 0.00 72 1015.9
20260831110742 81 173 1.0 1.0 0.00 0.00 0.00 71 1015.5
20260831110237 81 166 1.0 1.0 0.00 0.00 0.00 71 1015.7
20260831105735 81 185 0.0 0.0 0.00 0.00 0.00 71 1015.8
20260831105231 82 186 0.0 0.0 0.00 0.00 0.00 70 1015.5
20260831104726 82 160 0.0 1.0 0.00 0.00 0.00 69 1015.7
20260831104223 82 187 0.0 1.0 0.00 0.00 0.00 69 1015.5
20260831103722 82 180 0.0 3.0 0.00 0.00 0.00 68 1015.6
20260831103218 82 265 2.0 2.0 0.00 0.00 0.00 68 1015.5
20260831102718 82 195 0.0 0.0 0.00 0.00 0.00 68 1015.5
20260831102213 82 195 0.0 1.0 0.00 0.00 0.00 68 1015.5
20260831101708 82 180 0.0 1.0 0.00 0.00 0.00 68 1015.5
20260831101204 82 261 0.0 0.0 0.00 0.00 0.00 68 1015.5
20260831100700 82 195 0.0 0.0 0.00 0.00 0.00 68 1015.5
20260831100156 82 195 0.0 0.0 0.00 0.00 0.00 67 1015.6
20260831095653 83 188 0.0 1.0 0.00 0.00 0.00 67 1015.3
20260831095149 83 180 0.0 0.0 0.00 0.00 0.00 66 1015.5
20260831094644 83 158 0.0 3.0 0.00 0.00 0.00 65 1015.4
20260831094140 84 180 0.0 3.0 0.00 0.00 0.00 65 1015.4
20260831093635 84 187 0.0 0.0 0.00 0.00 0.00 64 1015.4
20260831093131 84 233 0.0 2.0 0.00 0.00 0.00 64 1015.4
20260831092627 84 270 0.0 2.0 0.00 0.00 0.00 63 1015.3
20260831092123 84 243 1.0 3.0 0.00 0.00 0.00 63 1015.1
20260831091622 84 255 0.0 2.0 0.00 0.00 0.00 63 1015.4
20260831091118 84 270 0.0 2.0 0.00 0.00 0.00 63 1015.2
20260831090613 84 250 0.0 3.0 0.00 0.00 0.00 63 1015.0
20260831090109 84 180 0.0 1.0 0.00 0.00 0.00 63 1015.3
20260831085604 84 175 2.0 3.0 0.00 0.00 0.00 62 1015.4
20260831085100 84 270 2.0 4.0 0.00 0.00 0.00 62 1015.1
20260831084555 84 192 0.0 1.0 0.00 0.00 0.00 62 1015.1
20260831084051 84 255 1.0 2.0 0.00 0.00 0.00 62 1015.2
20260831083547 84 240 1.0 2.0 0.00 0.00 0.00 61 1015.1
20260831083042 85 206 2.0 3.0 0.00 0.00 0.00 61 1015.0
20260831082541 85 254 0.0 3.0 0.00 0.00 0.00 60 1015.0
20260831082037 85 257 1.0 3.0 0.00 0.00 0.00 60 1015.2
20260831081532 85 255 0.0 4.0 0.00 0.00 0.00 59 1015.2
20260831081029 85 203 1.0 5.0 0.00 0.00 0.00 59 1015.2
20260831080528 86 249 4.0 6.0 0.00 0.00 0.00 59 1015.0
20260831080024 86 248 2.0 5.0 0.00 0.00 0.00 58 1015.0
20260831075519 86 278 1.0 3.0 0.00 0.00 0.00 58 1015.2
20260831075015 86 221 0.0 3.0 0.00 0.00 0.00 58 1015.1
20260831074514 86 274 0.0 4.0 0.00 0.00 0.00 57 1015.2
20260831074009 86 277 1.0 3.0 0.00 0.00 0.00 56 1015.1
20260831073509 86 248 2.0 3.0 0.00 0.00 0.00 57 1015.2
20260831073008 86 270 0.0 2.0 0.00 0.00 0.00 56 1014.9
20260831072503 86 325 0.0 2.0 0.00 0.00 0.00 55 1014.8
20260831072000 86 248 2.0 3.0 0.00 0.00 0.00 54 1014.9
20260831071458 86 233 0.0 5.0 0.00 0.00 0.00 55 1015.0
20260831070954 86 229 2.0 2.0 0.00 0.00 0.00 55 1014.7
20260831070452 86 203 0.0 1.0 0.00 0.00 0.00 55 1015.0
20260831065953 86 246 0.0 1.0 0.00 0.00 0.00 55 1014.8
20260831065451 86 180 1.0 1.0 0.00 0.00 0.00 56 1014.7
20260831064946 86 191 0.0 2.0 0.00 0.00 0.00 56 1015.0
20260831064441 86 246 0.0 2.0 0.00 0.00 0.00 56 1015.1
20260831063937 85 246 1.0 3.0 0.00 0.00 0.00 58 1015.1
20260831063432 84 99 0.0 1.0 0.00 0.00 0.00 59 1015.0
20260831062931 84 180 0.0 0.0 0.00 0.00 0.00 60 1015.0
20260831062429 84 180 0.0 0.0 0.00 0.00 0.00 60 1015.0
20260831061926 84 180 0.0 0.0 0.00 0.00 0.00 58 1015.2
20260831061424 84 180 0.0 0.0 0.00 0.00 0.00 63 1015.1
20260831060921 84 180 0.0 0.0 0.00 0.00 0.00 63 1015.0
20260831060421 85 180 0.0 0.0 0.00 0.00 0.00 59 1015.1
20260831055921 85 165 0.0 0.0 0.00 0.00 0.00 57 1015.1
20260831055416 86 261 0.0 0.0 0.00 0.00 0.00 57 1015.1
20260831054911 86 251 0.0 2.0 0.00 0.00 0.00 56 1015.2
20260831054406 86 180 0.0 0.0 0.00 0.00 0.00 56 1015.2
20260831053905 86 188 0.0 1.0 0.00 0.00 0.00 56 1015.2
20260831053404 86 188 0.0 0.0 0.00 0.00 0.00 56 1015.2
20260831052859 86 188 0.0 0.0 0.00 0.00 0.00 55 1015.2
20260831052358 86 188 0.0 1.0 0.00 0.00 0.00 55 1015.0
20260831051856 86 200 0.0 0.0 0.00 0.00 0.00 56 1015.0
20260831051355 86 168 0.0 0.0 0.00 0.00 0.00 55 1014.8
20260831050850 87 168 1.0 1.0 0.00 0.00 0.00 54 1014.7
20260831050349 87 180 0.0 0.0 0.00 0.00 0.00 54 1014.9
20260831045844 87 180 0.0 0.0 0.00 0.00 0.00 54 1014.9
20260831045343 87 195 0.0 0.0 0.00 0.00 0.00 54 1014.9
20260831044838 87 188 0.0 0.0 0.00 0.00 0.00 53 1014.8
20260831044338 87 188 0.0 0.0 0.00 0.00 0.00 53 1014.7
20260831043835 88 188 0.0 0.0 0.00 0.00 0.00 52 1014.9
20260831043334 88 188 0.0 0.0 0.00 0.00 0.00 52 1014.7
20260831042829 88 188 0.0 0.0 0.00 0.00 0.00 52 1014.5
20260831042328 88 195 0.0 0.0 0.00 0.00 0.00 52 1014.7
20260831041824 88 203 0.0 1.0 0.00 0.00 0.00 52 1014.7
20260831041323 88 187 1.0 1.0 0.00 0.00 0.00 52 1014.7
20260831040818 88 188 0.0 0.0 0.00 0.00 0.00 52 1014.7
20260831040317 88 188 0.0 1.0 0.00 0.00 0.00 52 1014.8
20260831035816 88 180 0.0 0.0 0.00 0.00 0.00 51 1014.8
20260831035316 89 180 0.0 0.0 0.00 0.00 0.00 51 1014.7
20260831034816 89 180 0.0 0.0 0.00 0.00 0.00 51 1014.7
20260831034311 89 180 0.0 0.0 0.00 0.00 0.00 51 1014.7
20260831033807 89 180 0.0 0.0 0.00 0.00 0.00 50 1014.6
20260831033306 90 180 0.0 0.0 0.00 0.00 0.00 49 1014.4
20260831032802 90 180 0.0 0.0 0.00 0.00 0.00 49 1014.4
20260831032256 91 180 0.0 1.0 0.00 0.00 0.00 48 1014.4
20260831031752 91 173 0.0 0.0 0.00 0.00 0.00 48 1014.4
20260831031251 91 173 0.0 1.0 0.00 0.00 0.00 47 1014.4
20260831030746 91 8 0.0 2.0 0.00 0.00 0.00 47 1014.4
20260831030244 91 246 0.0 1.0 0.00 0.00 0.00 48 1014.5
20260831025743 91 180 0.0 0.0 0.00 0.00 0.00 48 1014.5
20260831025233 91 188 0.0 0.0 0.00 0.00 0.00 47 1014.3
20260831024729 91 187 0.0 1.0 0.00 0.00 0.00 47 1014.3
20260831024227 91 195 0.0 0.0 0.00 0.00 0.00 48 1014.1
20260831023726 91 180 0.0 0.0 0.00 0.00 0.00 47 1013.9
20260831023226 91 194 0.0 0.0 0.00 0.00 0.00 47 1014.0
20260831022721 92 194 0.0 0.0 0.00 0.00 0.00 47 1013.9
20260831022220 92 194 0.0 0.0 0.00 0.00 0.00 46 1014.0
20260831021720 92 188 0.0 0.0 0.00 0.00 0.00 46 1014.0
20260831021214 92 188 0.0 0.0 0.00 0.00 0.00 45 1013.8
20260831020711 92 195 0.0 2.0 0.00 0.00 0.00 45 1013.6
20260831020210 92 172 0.0 2.0 0.00 0.00 0.00 44 1013.6
20260831015707 93 180 0.0 1.0 0.00 0.00 0.00 44 1013.4
20260831015206 93 176 0.0 2.0 0.00 0.00 0.00 44 1013.3
20260831014701 93 187 0.0 1.0 0.00 0.00 0.00 44 1013.4
20260831014156 93 180 0.0 1.0 0.00 0.00 0.00 43 1013.3
20260831013653 93 192 1.0 1.0 0.00 0.00 0.00 43 1013.3
20260831013152 94 195 0.0 1.0 0.00 0.00 0.00 42 1013.0
20260831012647 94 173 0.0 0.0 0.00 0.00 0.00 42 1013.3
20260831012143 94 173 0.0 1.0 0.00 0.00 0.00 42 1013.1
20260831011641 95 279 0.0 2.0 0.00 0.00 0.00 40 1012.8
20260831011137 95 186 0.0 1.0 0.00 0.00 0.00 40 1013.0
20260831010633 95 192 0.0 2.0 0.00 0.00 0.00 40 1012.8
20260831010128 95 156 0.0 4.0 0.00 0.00 0.00 40 1013.1
20260831005628 95 172 0.0 2.0 0.00 0.00 0.00 39 1013.0
20260831005124 96 342 0.0 0.0 0.00 0.00 0.00 38 1012.7
20260831004619 96 20 0.0 2.0 0.00 0.00 0.00 38 1012.9
20260831004115 96 195 0.0 1.0 0.00 0.00 0.00 37 1012.8
20260831003611 97 180 0.0 0.0 0.00 0.00 0.00 37 1012.7
20260831003107 97 90 0.0 4.0 0.00 0.00 0.00 36 1013.0
20260831002605 98 23 1.0 2.0 0.00 0.00 0.00 35 1012.9
20260831002100 99 173 1.0 1.0 0.00 0.00 0.00 36 1012.7
20260831001556 100 270 0.0 2.0 0.00 0.00 0.00 35 1013.1
20260831001052 100 306 2.0 3.0 0.00 0.00 0.00 35 1012.8
20260831000548 100 180 0.0 1.0 0.00 0.00 0.00 35 1012.8
20260831000048 99 90 0.0 3.0 0.00 0.00 0.00 35 1013.0
20260830235547 100 270 0.0 3.0 0.00 0.00 0.00 35 1012.9
20260830235042 100 344 0.0 2.0 0.00 0.00 0.00 34 1013.4
20260830234542 100 96 0.0 2.0 0.00 0.00 0.00 34 1013.3
20260830234038 100 294 1.0 4.0 0.00 0.00 0.00 34 1013.0
20260830233533 101 282 2.0 3.0 0.00 0.00 0.00 34 1013.3
20260830233029 101 254 0.0 1.0 0.00 0.00 0.00 34 1013.1
20260830232525 101 234 2.0 3.0 0.00 0.00 0.00 33 1013.0
20260830232021 101 82 0.0 3.0 0.00 0.00 0.00 33 1013.0
20260830231517 101 14 2.0 3.0 0.00 0.00 0.00 33 1013.1
20260830231015 101 187 1.0 4.0 0.00 0.00 0.00 32 1013.0
20260830230511 101 261 1.0 2.0 0.00 0.00 0.00 34 1013.1
20260830230011 101 81 0.0 3.0 0.00 0.00 0.00 33 1013.1
20260830225507 101 294 0.0 1.0 0.00 0.00 0.00 32 1013.5
20260830225006 101 105 1.0 3.0 0.00 0.00 0.00 32 1013.3
20260830224504 101 254 1.0 3.0 0.00 0.00 0.00 32 1013.1
20260830224001 100 180 1.0 2.0 0.00 0.00 0.00 32 1013.5
20260830223458 100 188 0.0 3.0 0.00 0.00 0.00 33 1013.4
20260830222957 101 303 2.0 3.0 0.00 0.00 0.00 32 1013.4
20260830222452 100 90 0.0 3.0 0.00 0.00 0.00 33 1013.5
20260830221948 100 198 2.0 5.0 0.00 0.00 0.00 33 1013.4
20260830221444 102 283 1.0 6.0 0.00 0.00 0.00 33 1013.4
20260830220940 101 286 1.0 3.0 0.00 0.00 0.00 33 1013.3
20260830220440 101 75 0.0 2.0 0.00 0.00 0.00 32 1013.3
20260830215937 101 277 1.0 3.0 0.00 0.00 0.00 33 1013.1
20260830215432 101 270 2.0 3.0 0.00 0.00 0.00 33 1013.3
20260830214926 101 234 2.0 3.0 0.00 0.00 0.00 34 1013.3
20260830214422 101 243 0.0 3.0 0.00 0.00 0.00 35 1013.5
20260830213922 100 180 0.0 4.0 0.00 0.00 0.00 34 1013.5
20260830213418 101 209 0.0 2.0 0.00 0.00 0.00 35 1013.5
20260830212913 101 184 2.0 2.0 0.00 0.00 0.00 34 1013.5
20260830212409 101 183 0.0 4.0 0.00 0.00 0.00 35 1013.7
20260830211909 101 180 0.0 3.0 0.00 0.00 0.00 34 1013.9
20260830211408 101 191 2.0 4.0 0.00 0.00 0.00 33 1014.0
20260830210904 100 195 1.0 3.0 0.00 0.00 0.00 35 1013.8
20260830210403 101 188 0.0 2.0 0.00 0.00 0.00 37 1013.8
20260830205901 100 287 3.0 3.0 0.00 0.00 0.00 35 1014.0
20260830205400 99 319 2.0 2.0 0.00 0.00 0.00 35 1014.0
20260830204856 99 164 0.0 3.0 0.00 0.00 0.00 37 1013.9
20260830204354 99 266 0.0 3.0 0.00 0.00 0.00 37 1014.1
20260830203850 99 19 3.0 3.0 0.00 0.00 0.00 36 1014.1